Volver al catálogo

STARLINK-6095

ActivoComunicacionesVLEO
NORAD 56101·PAYLOAD·🇺🇸 United States

Lanzado Mar 29, 2023 desde Cape Canaveral Space Force Station

Loading…

Próximos Pases (próximas 24 horas)

TLE

ActualizadoSource: CelesTrak SupGP

Época: Sep 14, 2026, 21:36 UTC

1 56101C 23046J   26257.90048611 -.00039903  00000+0 -14451-2 0  2578
2 56101  43.0004 172.6945 0001571 259.2835  55.1615 15.27601837    12

Sigue STARLINK-6095 en tiempo real con AllMySat

Download on the App Store